Location: Trebic
(49.2170°N, 15.8830°E)
Time: 12:30:54
(UTC+02:00)

Transit 2A Rocket - Pass Details

Date: 29 July 2019
Orbit: 590 x 913 km, 66.7° (Epoch: 21 August)

Event Time Altitude Azimuth Distance (km) Brightness Sun altitude
Rises 03:23:16 0° 236° (SW) 3,493 - -15.1°
Reaches altitude 10° 03:25:57 10° 242° (WSW) 2,526 - -14.9°
Exits shadow 03:27:13 16° 247° (WSW) 2,087 6.8 -14.8°
Maximum altitude 03:31:33 45° 315° (NW) 1,126 5.9 -14.4°
Drops below altitude 10° 03:36:47 10° 28° (NNE) 2,353 8.9 -13.9°
Sets 03:39:12 0° 35° (NE) 3,231 10.3 -13.6°
